Change the Weather History Date:

Saturday, December 8, 2012

  Actual Average Record
Temperature  
Mean Temperature 32 °F -  
Max Temperature 36 °F 39 °F 57 °F (2010)
Min Temperature 28 °F 29 °F 15 °F (1998)
Degree Days  
Heating Degree Days 33    
Moisture  
Dew Point 28 °F    
Average Humidity 82    
Maximum Humidity 100    
Minimum Humidity 60    
Precipitation  
Precipitation 0.04 in 0.10 in - ()
Sea Level Pressure  
Sea Level Pressure 30.01 in    
Wind  
Wind Speed 7 mph ()    
Max Wind Speed 16 mph    
Max Gust Speed -    
Visibility 6.2 miles    
Events Rain , Snow    
Averages and records for this station are not official NWS values.
T = Trace of Precipitation, MM = Missing Value Source: Averaged Metar Reports

Daily Weather History Graph

Daily Weather History Graph

Search for Another Location

Airport or City:

Trip Planner

Search our weather history database for the weather conditions in past years. The results will help you decide how hot, cold, wet, or windy it might be!

Date:

Astronomy

Dec. 08, 2012 Rise Set
Actual Time 8:05 AM CET 4:49 PM CET
Civil Twilight 7:31 AM CET 5:23 PM CET
Nautical Twilight 6:53 AM CET 6:01 PM CET
Astronomical Twilight 6:16 AM CET 6:38 PM CET
Moon 1:56 AM CET (12/8) 1:24 PM CET (12/8)
Length of Visible Light 9h 52m
Length of Day
8h 43m
Waning Crescent, 31% of the Moon is Illuminated
Dec 8
Waning Crescent
Dec 13
New
Dec 20
First Quarter
Dec 28
Full
Jan 5
Last Quarter

Hourly Weather History & Observations

Time (CET) Temp. Windchill Dew Point Humidity Pressure Visibility Wind Dir Wind Speed Gust Speed Precip Events Conditions
12:00 AM 36 °F - 29 °F 66% 29.77 in - WSW 10.4 mph - -  
12:20 AM 35.6 °F 28.0 °F 30.2 °F 81% 29.68 in 6.2 mi SSW 10.4 mph - N/A   Mostly Cloudy
12:50 AM 35.6 °F 26.2 °F 32.0 °F 87% 29.71 in 6.2 mi SSW 15.0 mph - N/A Rain Light Rain Showers
1:00 AM 35 °F - 31 °F 78% 29.76 in 31 mi SSW 13.8 mph - -   Mostly Cloudy
1:20 AM 33.8 °F 24.8 °F 32.0 °F 93% 29.71 in 1.4 mi SSW 12.7 mph - N/A Snow Snow Showers
1:50 AM 33.8 °F 25.8 °F 32.0 °F 93% 29.68 in 5.0 mi SSW 10.4 mph - N/A Rain , Snow Light Rain Showers
2:00 AM 34 °F - 31 °F 86% 29.75 in - SSW 10.4 mph - -  
2:20 AM 33.8 °F 26.4 °F 32.0 °F 93% 29.68 in 0.7 mi SW 9.2 mph - N/A Snow Snow Showers
2:50 AM 32.0 °F 24.2 °F 32.0 °F 100% 29.68 in 2.2 mi SSW 9.2 mph - N/A Rain , Snow Light Snow Showers
3:00 AM 34 °F - 32 °F 87% 29.75 in - SSW 9.2 mph - -  
3:20 AM 33.8 °F 26.4 °F 32.0 °F 93% 29.68 in 6.2 mi SSW 9.2 mph - N/A Rain , Snow Light Snow Showers
3:50 AM 33.8 °F 27.0 °F 32.0 °F 93% 29.71 in - South 8.1 mph - N/A Rain , Snow Light Snow Showers
4:20 AM 33.8 °F 27.0 °F 32.0 °F 93% 29.71 in 1.9 mi SSW 8.1 mph - N/A Rain , Snow Light Snow Showers
4:50 AM 32.0 °F - 32.0 °F 100% 29.74 in 3.7 mi Variable 2.3 mph - N/A Snow Light Snow Showers
5:00 AM 33 °F - 32 °F 93% 29.81 in - SW 4.6 mph - -  
5:20 AM 32.0 °F 28.7 °F 32.0 °F 100% 29.74 in 6.2 mi WSW 3.5 mph - N/A   Mostly Cloudy
5:50 AM 32.0 °F 27.5 °F 32.0 °F 100% 29.77 in 6.2 mi Variable 4.6 mph - N/A   Scattered Clouds
6:00 AM 33 °F - 31 °F 91% 29.85 in - NW 1.2 mph - -  
6:20 AM 32.0 °F - 32.0 °F 100% 29.80 in 6.2 mi Variable 2.3 mph - N/A   Scattered Clouds
6:50 AM 32.0 °F - 30.2 °F 93% 29.80 in 6.2 mi Variable 1.2 mph - N/A   Partly Cloudy
7:00 AM 32 °F - 29 °F 84% 29.89 in 16 mi NNE 2.3 mph - -   Partly Cloudy
7:20 AM 32.0 °F - 30.2 °F 93% 29.83 in 6.2 mi Variable 2.3 mph - N/A   Mostly Cloudy
7:50 AM 32.0 °F - 30.2 °F 93% 29.86 in 6.2 mi Variable 2.3 mph - N/A   Mostly Cloudy
8:00 AM 31 °F - 29 °F 87% 29.94 in - South 1.2 mph - -  
8:20 AM 30.2 °F - 28.4 °F 93% 29.89 in 6.2 mi Calm Calm - N/A   Mostly Cloudy
8:50 AM 30.2 °F - 30.2 °F 100% 29.89 in 5.6 mi Variable 2.3 mph - N/A   Mostly Cloudy
9:00 AM 30 °F - 29 °F 94% 29.98 in - North 2.3 mph - -  
9:20 AM 30.2 °F - 30.2 °F 100% 29.92 in 6.2 mi Variable 2.3 mph - N/A   Mostly Cloudy
9:50 AM 33.8 °F - 30.2 °F 87% 29.95 in 6.2 mi Variable 2.3 mph - N/A   Mostly Cloudy
10:20 AM 33.8 °F 30.8 °F 30.2 °F 87% 29.98 in 6.2 mi Variable 3.5 mph - N/A   Scattered Clouds
10:50 AM 35.6 °F 32.8 °F 30.2 °F 81% 29.98 in 6.2 mi NNE 3.5 mph - N/A   Mostly Cloudy
11:00 AM 34 °F - 29 °F 76% 30.06 in - North 4.6 mph - -  
11:20 AM 33.8 °F 30.8 °F 30.2 °F 87% 30.01 in 6.2 mi Variable 3.5 mph - N/A   Mostly Cloudy
11:50 AM 35.6 °F 32.8 °F 30.2 °F 81% 30.01 in 6.2 mi North 3.5 mph - N/A   Mostly Cloudy
12:00 PM 37 °F - 30 °F 67% 30.07 in - North 3.5 mph - -  
12:20 PM 35.6 °F 30.7 °F 30.2 °F 81% 30.01 in 6.2 mi North 5.8 mph - N/A   Mostly Cloudy
12:50 PM 37.4 °F 31.4 °F 30.2 °F 75% 30.04 in 6.2 mi NNE 8.1 mph - N/A   Mostly Cloudy
1:00 PM 37 °F - 29 °F 62% 30.11 in 19 mi NE 11.5 mph - -   Mostly Cloudy
1:20 PM 35.6 °F 27.5 °F 30.2 °F 81% 30.06 in 6.2 mi NE 11.5 mph - N/A   Mostly Cloudy
1:50 PM 35.6 °F 27.5 °F 28.4 °F 75% 30.06 in 6.2 mi NE 11.5 mph - N/A   Mostly Cloudy
2:00 PM 36 °F - 28 °F 62% 30.14 in - NE 16.1 mph - -  
2:20 PM 35.6 °F 27.5 °F 28.4 °F 75% 30.06 in 6.2 mi ENE 11.5 mph - N/A   Mostly Cloudy
2:50 PM 35.6 °F 27.5 °F 28.4 °F 75% 30.09 in 6.2 mi NE 11.5 mph - N/A   Mostly Cloudy
3:00 PM 36 °F - 28 °F 61% 30.15 in - ENE 12.7 mph - -  
3:20 PM 35.6 °F 28.6 °F 28.4 °F 75% 30.09 in 6.2 mi ENE 9.2 mph - N/A   Mostly Cloudy
3:50 PM 35.6 °F 28.0 °F 28.4 °F 75% 30.12 in 6.2 mi ENE 10.4 mph - N/A   Scattered Clouds
4:20 PM 35.6 °F 28.0 °F 26.6 °F 70% 30.12 in 6.2 mi NE 10.4 mph - N/A   Partly Cloudy
4:50 PM 33.8 °F 25.3 °F 26.6 °F 75% 30.15 in 6.2 mi NE 11.5 mph - N/A   Partly Cloudy
5:00 PM 34 °F - 25 °F 60% 30.22 in - NE 9.2 mph - -  
5:20 PM 33.8 °F 27.0 °F 26.6 °F 75% 30.15 in 6.2 mi NE 8.1 mph - N/A   Partly Cloudy
5:50 PM 33.8 °F 27.7 °F 26.6 °F 75% 30.18 in 6.2 mi NE 6.9 mph - N/A   Partly Cloudy
6:00 PM 33 °F - 25 °F 61% 30.25 in - NNE 5.8 mph - -  
6:20 PM 30.2 °F 26.7 °F 24.8 °F 80% 30.18 in 6.2 mi Variable 3.5 mph - N/A   Partly Cloudy
6:50 PM 28.4 °F 24.6 °F 24.8 °F 86% 30.21 in 6.2 mi North 3.5 mph - N/A   Scattered Clouds
7:00 PM 28 °F - 23 °F 75% 30.30 in 28 mi North 5.8 mph - -   Scattered Clouds
7:20 PM 28.4 °F 23.3 °F 23.0 °F 80% 30.21 in 6.2 mi North 4.6 mph - N/A   Partly Cloudy
7:50 PM 28.4 °F 23.3 °F 23.0 °F 80% 30.24 in 6.2 mi North 4.6 mph - N/A   Scattered Clouds
8:00 PM 28 °F - 22 °F 69% 30.33 in - North 3.5 mph - -  
8:20 PM 28.4 °F - 23.0 °F 80% 30.24 in 6.2 mi Variable 2.3 mph - N/A   Mostly Cloudy
8:50 PM 28.4 °F 23.3 °F 23.0 °F 80% 30.24 in 6.2 mi North 4.6 mph - N/A   Scattered Clouds
9:00 PM 28 °F - 22 °F 70% 30.35 in - North 4.6 mph - -  
9:20 PM 28.4 °F 24.6 °F 23.0 °F 80% 30.27 in 6.2 mi North 3.5 mph - N/A   Mostly Cloudy
9:50 PM 28.4 °F - 23.0 °F 80% 30.27 in 6.2 mi Variable 2.3 mph - N/A   Mostly Cloudy
10:20 PM 28.4 °F 24.6 °F 23.0 °F 80% 30.27 in 6.2 mi Variable 3.5 mph - N/A   Mostly Cloudy
10:50 PM 28.4 °F 24.6 °F 23.0 °F 80% 30.27 in 6.2 mi North 3.5 mph - N/A   Mostly Cloudy
11:00 PM 29 °F - 23 °F 68% 30.37 in - North 3.5 mph - -  
11:20 PM 30.2 °F - 23.0 °F 75% 30.27 in 6.2 mi Variable 2.3 mph - N/A   Mostly Cloudy
11:50 PM 28.4 °F - 23.0 °F 80% 30.30 in 6.2 mi Variable 1.2 mph - N/A   Mostly Cloudy